Home   Weather   Datteln   Past weeks

Flag for Germany Past Weather in Datteln, North Rhine-Westphalia, Germany — Yesterday and Last 2 Weeks

Now
43 °F

Sunny.


Feels Like: 37 °F
Forecast: 34 / 50 °F
Wind: 9 mph from Northwest

Location: Dortmund / Wickede

Current Time: Apr 25, 2017 at 8:36:28 pm

Latest Report: Apr 25, 2017 at 7:50 pm


Visibility: 10 mi

Pressure: 29.80 "Hg

Humidity: 53%

Dew Point: 27 °F

Location of DattelnLocation

Past Weather in Datteln — Graph

°F

Datteln Temperature Yesterday

Maximum temperature yesterday: 57 °F (at 2:50 pm)
Minimum temperature yesterday: 34 °F (at 5:20 am)
Average temperature yesterday: 49 °F

High & Low Weather Summary for the Past Weeks

 TemperatureHumidityPressure
High57 °F (Apr 24, 2:50 pm)93% (Apr 14, 6:50 am)30.60 "Hg (Apr 14, 6:50 am)
Low25 °F (Apr 20, 5:20 am)28% (Apr 20, 3:20 pm)29.68 "Hg (Apr 25, 5:20 am)
Average45 °F65%30.14 "Hg
* Reported Apr 10 7:20 pm — Apr 25 7:20 pm, Datteln, Weather by CustomWeather, © 2017

Note: Actual official high and low records may vary slightly from our data, if they occured in-between our weather recording intervals... More about our weather records

Advertising

Datteln Weather History for the Previous 24 Hours

Scroll right to see more
 ConditionsComfort  
Time TempWeatherWind HumidityBarometerVisibility
7:20 pm
Tue, Apr 25
45 °FPassing clouds.10 mph53%29.80 "HgN/A
6:50 pm46 °FPassing clouds.12 mph46%29.80 "HgN/A
6:20 pm45 °FScattered clouds.12 mph53%29.77 "HgN/A
5:50 pm45 °FScattered clouds.9 mph53%29.77 "HgN/A
5:20 pm46 °FScattered clouds.13 mph50%29.77 "HgN/A
4:50 pm45 °FScattered clouds.15 mph53%29.77 "HgN/A
4:20 pm48 °FScattered clouds.9 mph54%29.77 "HgN/A
3:50 pm45 °FScattered clouds.8 mph66%29.77 "HgN/A
3:20 pm45 °FScattered clouds.10 mph66%29.77 "HgN/A
2:50 pm39 °FScattered clouds.14 mph81%29.77 "HgN/A
2:20 pm39 °FSprinkles. Broken clouds.24 mph75%29.77 "HgN/A
1:50 pm45 °FScattered clouds.13 mph66%29.74 "HgN/A
1:20 pm43 °FSprinkles. Partly sunny.17 mph57%29.74 "HgN/A
12:50 pm46 °FPartly sunny.17 mph46%29.74 "HgN/A
12:20 pm45 °FPartly sunny.17 mph49%29.74 "HgN/A
11:50 am45 °FPartly sunny.16 mph53%29.74 "HgN/A
11:20 am45 °FScattered clouds.18 mph53%29.71 "HgN/A
10:50 am45 °FPartly sunny.17 mph57%29.71 "HgN/A
10:28 am41 °FScattered clouds.17 mph57%29.71 "HgN/A
9:50 am41 °FScattered showers. Scattered clouds.16 mph66%29.71 "HgN/A
8:50 am41 °FPartly sunny.12 mph81%29.71 "HgN/A
8:20 am41 °FBroken clouds.10 mph87%29.68 "HgN/A
7:50 am41 °FPartly sunny.10 mph81%29.68 "HgN/A
7:20 am39 °FPartly sunny.13 mph87%29.68 "HgN/A
6:50 am39 °FPartly sunny.12 mph87%29.68 "HgN/A
6:20 am39 °FLight rain. Partly sunny.10 mph87%29.68 "HgN/A
5:50 am39 °FLight rain. Passing clouds.9 mph87%29.68 "HgN/A
5:20 am39 °FLight rain. Passing clouds.8 mph93%29.68 "HgN/A
9:50 pm
Mon, Apr 24
50 °FClear.7 mph62%29.77 "Hg10 mi
9:20 pm50 °FPassing clouds.6 mph58%29.77 "HgN/A
8:50 pm52 °FClear.8 mph50%29.77 "Hg10 mi
8:20 pm52 °FSunny.8 mph50%29.80 "Hg10 mi
Weather by CustomWeather, © 2017

See weather overviewHow to use our weather pages